Simultaneous Nadir Overpasses (SNOs) Predictions

Prediction of SNOs between GOES-17 and NOAA-19 Satellite Orbit:

Table of predicted SNOs for the next 14.0 days since TLE Epoch: 8/24/2024
Index Date Time (GOES-17) GOES-17 Lat,Lon NOAA-19 Lat,Lon Distance(km) Time Diff (sec)
1 08/26/2024 04:32:36 -0.00,-104.69 -0.52,-106.95 257.65 80
2 08/27/2024 04:17:35 -0.00,-104.69 0.16,-103.94 85.14 80
3 08/28/2024 04:05:14 -0.01,-104.69 0.84,-100.94 427.94 80
4 08/29/2024 16:36:44 0.01,-104.74 0.87,-108.51 429.95 80
5 08/30/2024 16:24:22 0.01,-104.74 0.18,-105.50 86.98 80
6 08/31/2024 16:14:41 0.01,-104.74 -0.51,-102.50 256.13 80
7 09/03/2024 04:34:08 -0.00,-104.71 -0.56,-107.13 276.15 80
8 09/04/2024 04:19:06 -0.00,-104.72 0.15,-104.13 67.36 80
9 09/05/2024 04:06:45 0.00,-104.72 0.85,-101.13 410.94 80
10 09/06/2024 16:38:14 0.00,-104.78 0.90,-108.69 446.19 80
